Temp
59 60 60 59 59 60 62 61 59 56 58 57 56 56 56 56 56 57 57 57 58 58 60 61 62 63 63
58 57 57 59 58 57 59 60 60 56 56 56 56 55 55 55 55 55 55 55 56 55 57 58 59 61 63
59 55 56 56 56 56 57 57 58 56 56 55 55 55 55 54 54 54 53 54 54 53 54 55 56 58 61
58 54 53 52 54 52 50 53 53 55 53 53 53 54 54 54 53 52 51 52 53 53 53 53 53 55 58
57 55 52 47 50 51 51 52 51 53 49 48 49 50 50 52 51 50 50 50 51 52 53 53 53 54 55
57 56 55 54 53 52 51 48 46 51 48 47 48 47 48 49 50 51 50 50 51 51 52 52 53 53 53
58 58 57 57 55 51 51 51 52 47 49 47 43 44 47 48 50 50 50 50 50 51 51 51 51 51 52
58 60 60 59 57 55 54 52 43 40 47 41 40 42 44 46 49 49 49 49 49 50 50 50 50 51 51
52 53 53 54 56 54 46 42 43 36 41 41 37 38 41 41 44 47 48 48 49 49 50 49 49 49 49
49 51 51 53 50 53 51 46 45 39 38 40 37 36 34 38 41 43 44 47 48 49 49 49 48 46 45
45 46 47 47 47 48 50 46 46 45 39 41 37 36 35 33 36 39 40 42 44 46 49 48 48 46 43
39 39 39 40 41 41 42 43 41 38 40 41 34 39 35 32 32 34 37 40 41 40 40 47 48 48 47
37 38 38 40 35 34 33 33 33 34 36 38 36 36 36 34 32 33 33 34 36 37 37 37 38 40 42
37 38 38 35 35 34 34 33 33 34 33 34 35 36 35 35 35 33 33 31 34 35 36 37 38 40 41
36 36 36 36 35 34 34 33 33 33 31 31 32 32 33 33 33 34 32 32 33 33 34 34 35 37 39
33 34 34 34 34 35 33 33 33 33 31 29 29 29 29 31 33 32 32 31 32 32 33 32 32 34 36
32 32 33 34 34 34 34 33 33 33 32 30 29 31 27 25 28 32 31 31 31 30 32 31 31 33 35
MSLP
1012.49 1012.86 1013.35 1013.74 1014.03 1013.96 1014.19 1014.15 1014.44 1014.69 1015.19 1015.46 1015.87 1016.12 1016.28 1016.51 1016.81 1016.81 1017.17 1017.13 1017.37 1017.40 1017.27 1017.01 1016.78 1016.72 1016.84
1012.21 1012.78 1012.79 1013.23 1013.87 1013.86 1013.99 1013.93 1014.02 1014.06 1014.58 1014.96 1015.44 1015.44 1015.60 1015.77 1016.03 1016.19 1016.37 1016.52 1016.87 1016.85 1017.05 1016.90 1016.59 1016.30 1016.35
1011.04 1011.79 1012.41 1012.70 1013.31 1013.49 1013.77 1013.94 1013.84 1013.68 1013.89 1014.32 1014.94 1015.00 1015.16 1015.23 1015.24 1015.59 1015.86 1016.01 1016.17 1016.38 1016.33 1016.56 1016.43 1016.21 1016.18
1010.50 1010.93 1011.66 1012.33 1012.67 1012.96 1013.46 1013.29 1013.28 1013.45 1013.63 1013.89 1014.46 1014.30 1014.25 1014.62 1014.82 1014.60 1014.88 1015.44 1015.83 1015.97 1016.04 1016.00 1016.05 1016.10 1015.97
1009.53 1009.84 1010.26 1011.02 1011.41 1011.56 1012.02 1012.26 1012.66 1012.90 1013.21 1013.39 1013.75 1013.80 1013.75 1013.74 1013.95 1014.37 1014.36 1014.28 1015.14 1015.31 1015.55 1015.53 1015.55 1015.61 1015.70
1008.21 1008.22 1008.45 1008.70 1009.53 1010.47 1011.03 1011.36 1012.11 1011.69 1012.27 1012.36 1012.76 1012.83 1012.89 1012.87 1013.07 1013.24 1013.13 1013.50 1014.04 1014.58 1014.77 1014.95 1014.97 1015.15 1015.24
1006.86 1006.77 1007.11 1007.50 1008.23 1008.83 1009.25 1009.62 1009.53 1009.60 1010.57 1011.09 1011.57 1011.44 1011.67 1011.77 1012.10 1012.48 1012.46 1012.30 1013.02 1013.47 1013.91 1014.25 1014.40 1014.61 1014.72
1005.88 1005.95 1005.74 1006.02 1006.48 1006.78 1007.37 1007.73 1008.76 1009.20 1009.58 1010.29 1010.48 1010.17 1010.49 1010.68 1011.05 1011.60 1011.70 1011.84 1012.14 1012.53 1012.99 1013.52 1013.83 1013.95 1014.01
1005.71 1005.56 1005.61 1005.59 1005.83 1006.38 1006.68 1007.69 1008.34 1008.69 1008.77 1008.78 1009.23 1009.58 1009.97 1009.89 1009.62 1010.10 1010.55 1011.26 1011.70 1012.13 1012.30 1012.86 1013.34 1013.58 1013.88
1006.37 1006.05 1005.87 1005.69 1005.76 1005.69 1005.50 1005.94 1006.41 1007.15 1007.14 1008.02 1008.21 1008.70 1009.50 1009.16 1009.09 1009.54 1009.94 1010.38 1010.87 1011.59 1012.14 1012.51 1012.92 1013.34 1013.72
1006.82 1006.62 1006.39 1006.09 1005.87 1005.67 1005.38 1005.26 1005.20 1004.70 1005.02 1005.75 1006.28 1006.99 1007.48 1007.97 1007.85 1008.43 1008.99 1009.51 1010.04 1010.45 1011.15 1011.88 1012.29 1012.88 1013.43
1007.20 1007.00 1006.78 1006.43 1006.22 1005.96 1005.51 1005.18 1005.00 1004.87 1004.69 1004.79 1005.18 1005.36 1006.01 1007.13 1007.69 1007.78 1007.89 1008.67 1009.15 1009.85 1010.43 1011.18 1011.65 1012.16 1012.86
1007.38 1006.97 1006.71 1006.37 1006.12 1005.91 1005.67 1005.42 1005.15 1004.80 1004.65 1004.38 1004.27 1004.39 1004.81 1005.12 1006.10 1006.52 1007.23 1008.03 1008.44 1008.95 1010.06 1010.45 1010.74 1011.70 1012.62
1007.90 1007.44 1006.98 1006.59 1006.22 1005.97 1005.78 1005.56 1005.40 1004.86 1004.57 1004.09 1004.25 1003.94 1004.00 1004.32 1004.51 1005.77 1006.13 1007.07 1007.95 1008.80 1009.87 1010.53 1010.67 1011.01 1011.65
1008.21 1007.69 1007.12 1006.69 1006.19 1005.84 1005.56 1005.21 1005.09 1004.70 1004.67 1004.62 1004.28 1004.18 1004.37 1004.35 1004.50 1004.55 1005.29 1005.71 1006.80 1008.01 1009.21 1009.93 1010.52 1010.77 1011.06
1008.34 1007.74 1007.11 1006.59 1006.05 1005.53 1005.26 1004.89 1004.44 1004.04 1004.10 1004.37 1004.37 1003.71 1005.09 1004.74 1004.80 1004.74 1005.11 1005.57 1006.51 1007.74 1008.74 1009.51 1010.31 1010.84 1011.05
1008.31 1007.56 1006.84 1006.08 1005.42 1004.83 1004.45 1004.23 1003.74 1003.47 1003.17 1003.64 1003.67 1003.58 1003.76 1005.04 1005.52 1004.51 1004.94 1005.72 1006.98 1007.96 1008.63 1009.17 1009.39 1010.17 1010.88
Wind_Speed
2 4 8 7 6 7 8 7 7 14 15 13 13 12 12 12 12 11 12 10 11 12 13 12 10 10 9
6 4 7 9 8 7 8 6 8 14 17 15 15 15 15 14 13 13 12 11 12 12 14 12 11 11 12
11 4 4 4 6 6 8 8 7 8 18 17 17 16 16 15 15 13 12 11 12 11 12 13 12 12 13
9 3 3 3 5 5 5 7 7 6 7 10 14 18 19 18 17 14 13 10 13 14 14 11 11 11 13
10 8 7 5 11 8 11 7 8 7 7 7 7 8 10 16 12 13 13 13 15 15 16 13 11 11 11
12 12 14 10 7 9 8 5 6 9 8 11 9 10 9 8 16 17 19 16 15 14 13 13 12 10 11
14 15 12 13 10 11 12 11 12 2 12 11 7 11 8 9 17 18 18 17 16 14 11 10 10 11 12
11 13 14 10 13 15 17 18 1 2 9 8 7 9 9 9 20 18 18 17 16 15 13 11 10 12 12
15 14 13 14 14 9 6 5 9 6 9 4 5 3 6 8 10 22 21 19 16 16 16 14 11 12 8
11 10 8 11 10 11 9 13 9 5 8 11 7 6 4 4 7 8 9 20 18 17 16 15 14 5 5
6 6 7 7 7 6 10 9 13 13 8 11 8 6 2 3 5 8 8 9 9 11 18 18 17 11 6
4 5 5 6 6 6 6 7 5 6 6 15 5 11 8 5 5 6 7 7 8 7 5 11 19 17 12
6 6 4 6 4 3 2 3 4 3 5 12 7 8 8 6 5 7 11 5 6 8 6 7 6 4 7
7 9 8 4 4 2 4 2 3 5 2 3 5 9 8 6 7 11 7 8 7 6 6 5 5 5 6
10 11 10 10 9 4 5 4 8 6 2 0 4 5 5 2 5 8 9 6 8 9 7 6 4 5 6
8 8 9 9 9 9 6 7 9 8 6 4 3 5 2 4 7 6 5 6 8 9 6 7 5 4 4
11 11 10 9 11 9 8 8 10 9 7 6 7 6 7 3 2 3 6 6 7 7 6 3 4 6 4
Wind_Direction
132 161 188 204 218 207 221 202 190 202 211 203 205 206 213 218 225 226 238 242 256 262 265 266 275 253 254
195 193 188 203 215 205 219 220 217 197 206 210 215 212 213 215 219 223 228 229 244 250 264 269 263 259 244
224 157 192 169 201 205 217 224 229 216 198 206 220 220 220 220 215 219 225 220 225 243 252 261 266 262 259
223 198 158 166 198 192 221 220 223 218 212 210 224 227 224 225 223 210 207 223 241 247 256 250 256 263 263
222 205 182 166 196 202 222 213 225 212 206 211 218 224 226 225 222 212 208 214 238 240 248 251 248 250 254
224 220 214 205 188 206 216 184 231 195 200 230 203 221 217 208 209 209 204 209 220 229 236 241 236 242 241
226 220 219 209 192 191 202 210 229 174 196 230 188 219 211 211 202 206 205 198 207 213 220 223 221 236 237
236 226 224 214 203 202 210 218 278 166 176 206 180 217 198 205 202 211 208 207 204 198 198 204 216 204 192
253 264 259 219 209 207 195 159 214 214 203 186 184 176 200 206 195 202 204 207 207 202 193 190 187 179 179
334 322 292 277 266 250 212 213 213 209 194 202 163 151 196 208 186 191 198 204 200 202 196 189 184 164 156
318 309 302 293 286 273 247 221 233 240 178 186 186 181 161 161 173 176 180 186 186 191 191 190 186 178 169
316 301 293 295 282 275 286 285 289 270 175 196 186 192 176 155 187 168 166 171 168 166 153 187 189 189 183
318 304 288 294 293 296 295 319 295 283 224 207 209 190 192 167 160 174 156 178 171 159 161 160 156 153 183
315 309 309 307 281 237 271 250 270 268 335 340 244 193 188 187 155 162 151 166 162 149 157 170 163 164 177
330 321 312 305 296 261 252 235 246 255 229 284 82 55 33 122 147 159 152 124 150 147 149 160 174 175 172
307 302 300 298 297 288 256 250 253 241 217 182 188 109 35 3 357 143 133 130 147 147 147 155 164 189 173
311 307 301 292 296 282 270 258 257 249 215 189 188 195 148 168 341 326 144 135 143 153 161 160 144 164 166